CZ-6A DEB, 55883

Orbit data source: Space-Track

CZ-6A DEB, 55883 is space debris in SSO originally from a launch on Fri, 11 Nov 2022 UTC launched from the Taiyaun Space Center, China (TSC). Debris objects in space refer to the collection of defunct objects orbiting the Earth. Examples of debris include non-operational satellites, rocket bodies, and fragments generated from explosions, collisions, or faulty payload assembly.

Loading next visibility...
Identifier
55883, 2022-151AAF
Orbit
SSO
Country
Flag of CNCN / PRC
Related business
Manufacturer
SAST
Mission
Spacecraft
Bus & Motor
Unknown
Mass
Unknown
Launch date (UTC)
2022-11-11 (4 years ago)
Launch vehicle
Unknown
Launch site
Taiyaun Space Center, China (TSC)
Object type
Payload
Rocket body
Debris
Shape & HBR
Unknown shape, 0.1 m
Radar Cross Section
Small (<0.1 m²)

Expand to show TLE details & history
Last TLE update: 19 hours ago

TLE from 19 hours ago
0 CZ-6A DEB
1 55883U 22151AAF 26263.20645106  .00002528  00000-0  40507-3 0  9999
2 55883  98.6729 359.1967 0114541 301.5324  57.4732 14.68468525192577
Epoch: 2026-09-20T04:57Z
TLE epoch observation values (Epoch: 2026-09-20T04:57:17.371Z)
Latitude
-0.00003°
Longitude
-74.22963°
Altitude
626.215 km
Speed
7.568 km/s
True Right ascension
23h 56m 47s
True Declination
0° 00' 00"
Sunlit
Object was in full shadow at epoch
Visualization orbit readout
Latitude
Unknown
Longitude
Unknown
Altitude
Unknown
Speed
Unknown
Apparent Right ascension
Unknown
Apparent Declination
Unknown
Sunlit
N/A
Visualization observer readout
Local Sidereal Time
17:09:23
Azimuth
Unknown
Elevation
Unknown
Doppler factor
Unknown
Orbital elements
Apogee altitude
743.704 km
Perigee altitude
582.403 km
Semi-major axis
7,041.19 km
Eccentricity
0.01145
Inclination
98.6729°
RAAN
359.1967°
Arg. of periapsis
301.5324°
True anomaly
58.58837°
Mean anomaly
57.4732°
Eccentric anomaly
58.02993°
Mean motion
3.67345 °/min
Orbital period
98 mins
BSTAR
0.00040507
Loading maneuver chart data...
Computing Atmospheric mass density...

Documentation

Showing up to 5 results
|